METEOSAT-6 (MOP3) 1 22912C 93073B 08196.00000000 .00000076 00000-0 00000-0 0 1964 2 22912 7.5647 63.8427 0000464 35.0849 260.5841 1.00271843 13 METEOSAT-7 (MTP1) 1 24932C 97049B 08196.00000000 .00000159 00000-0 00000-0 0 1967 2 24932 4.3575 73.7595 0000433 6.1607 269.6275 1.00269512 16 METEOSAT-8 (MSG1) 1 27509C 02040B 08196.00000000 .00000153 00000-0 00000-0 0 1961 2 27509 0.5917 37.0710 0001232 32.0058 232.3514 1.00275478 16 METEOSAT-9 (MSG2) 1 28912C 05049B 08196.00000000 .00000083 00000-0 00000-0 0 1964 2 28912 0.4607 227.0433 0000859 219.7354 205.0417 1.00272783 15